STARLINK-2419, 47830

Orbit data source: Space-Track

STARLINK-2419, 47830 is a payload satellite owned by SpaceX/Seattle (US) in LEO that was launched on Thu, 11 Mar 2021 UTC via an FALCON 9 launch vehicle from the Air Force Eastern Test Range (AFETR). Payload-class satellites include a variety of spacecraft equipped with specific instruments for various scientific and technological missions. These include communications satellites like Starlink; space stations such as the ISS; scientific satellites like the Hubble; Earth observation satellites from companies like Planet Labs, Umbra, and HawkEye 360; GPS; miniature CubeSats for education and research; and military/defense satellites.

Loading next visibility...
Identifier
47830, 2021-018AV
Orbit
LEO
Country
Flag of USUS
Related business
Manufacturer
SpaceX/Seattle
Mission
Operational Commercial Communications
Bus & Motor
STARLINK, Unknown motor
Mass
260 kg wet, ~248 kg dry
Launch date (UTC)
2021-03-11 (5 years ago)
Launch vehicle
FALCON 9
Launch site
Air Force Eastern Test Range (AFETR)
Object type
Payload
Rocket body
Debris
Shape & HBR
Box + 1 Pan, 10.1 m
Radar Cross Section
13.562 m², Large (>1 m²)

Expand to show TLE details & history
Last TLE update: 2 days ago

TLE from 2 days ago
0 STARLINK-2419
1 47830U 21018AV  26171.19961940  .00000750  00000-0  35935-4 0  9991
2 47830  53.1608 138.7241 0001319  92.3949 267.7204 15.31700968292240
Epoch: 2026-06-20T04:47Z
TLE epoch observation values (Epoch: 2026-06-20T04:47:27.116Z)
Latitude
0.00004°
Longitude
158.44348°
Altitude
471.674 km
Speed
7.631 km/s
True Right ascension
09h 14m 53s
True Declination
0° 00' 00"
Sunlit
Object was in daylight at epoch
Visualization orbit readout
Latitude
Unknown
Longitude
Unknown
Altitude
Unknown
Speed
Unknown
Apparent Right ascension
Unknown
Apparent Declination
Unknown
Sunlit
N/A
Visualization observer readout
Local Sidereal Time
21:49:06
Azimuth
Unknown
Elevation
Unknown
Doppler factor
Unknown
Orbital elements
Apogee altitude
471.897 km
Perigee altitude
470.09 km
Semi-major axis
6,849.131 km
Eccentricity
0.00013
Inclination
53.1608°
RAAN
138.7241°
Arg. of periapsis
92.3949°
True anomaly
267.7053°
Mean anomaly
267.7204°
Eccentric anomaly
267.71285°
Mean motion
3.82904 °/min
Orbital period
94.02 mins
BSTAR
0.000035935
Loading maneuver chart data...
Computing Atmospheric mass density...

Documentation

Showing up to 5 results
|